Martinsburg, WV

2:53 AM EST on December 09, 2019 (GMT -0500)
Eastern W Va Regional-Shepherd

Weather History for KMRB - October, 2019

Change the Weather History Date:

Saturday, October 26, 2019

  Actual Average Record
Temperature  
Mean Temperature 54 °F 51 °F  
Max Temperature 60 °F 62 °F 79 °F (1973)
Min Temperature 48 °F 39 °F 23 °F (1952)
Degree Days  
Heating Degree Days 11 14  
Month to date heating degree days 231 278  
Since 1 July heating degree days 243 369  
Cooling Degree Days 0 0  
Month to date cooling degree days 37 8  
Year to date cooling degree days 1280 893  
Growing Degree Days 4 (Base 50)    
Moisture  
Dew Point 49 °F    
Average Humidity 78    
Maximum Humidity 100    
Minimum Humidity 62    
Precipitation  
Precipitation 0.01 in 0.10 in 1.04 in (1981)
Month to date precipitation 2.69 2.56  
Year to date precipitation 37.59 32.37  
Sea Level Pressure  
Sea Level Pressure 30.16 in    
Wind  
Wind Speed 2 mph ()    
Max Wind Speed 9 mph    
Max Gust Speed 14 mph    
Visibility 9.8 miles    
Events Rain    
T = Trace of Precipitation, MM = Missing Value Source: Averaged Metar Reports

Daily Weather History Graph

Daily Weather History Graph

Search for Another Location

Airport or City:

Astronomy

Oct. 26, 2019 Rise Set
Actual Time 7:33 AM EDT 6:18 PM EDT
Civil Twilight 7:05 AM EDT 6:45 PM EDT
Nautical Twilight 6:34 AM EDT 7:16 PM EDT
Astronomical Twilight 6:02 AM EDT 7:48 PM EDT
Moon 5:27 AM EDT (10/26) 5:51 PM EDT (10/26)
Length of Visible Light 11h 39m
Length of Day
10h 44m
Waning Crescent, 3% of the Moon is Illuminated
Oct 26
Waning Crescent
Oct 27
New
Nov 4
First Quarter
Nov 12
Full
Nov 19
Last Quarter

Hourly Weather History & Observations

Time (EDT) Temp. Dew Point Humidity Pressure Visibility Wind Dir Wind Speed Gust Speed Precip Events Conditions
12:53 AM 53.1 °F 48.9 °F 86% 30.19 in 10.0 mi Calm Calm - N/A   Overcast
1:53 AM 53.1 °F 48.9 °F 86% 30.18 in 10.0 mi Calm Calm - N/A   Overcast
2:53 AM 53.1 °F 48.9 °F 86% 30.19 in 10.0 mi NW 3.5 mph - N/A   Clear
3:53 AM 51.1 °F 48.9 °F 92% 30.19 in 10.0 mi Calm Calm - N/A   Clear
4:53 AM 50.0 °F 48.0 °F 93% 30.18 in 10.0 mi Calm Calm - N/A   Clear
5:53 AM 51.1 °F 48.9 °F 92% 30.19 in 10.0 mi Calm Calm - N/A   Clear
6:53 AM 48.9 °F 48.0 °F 97% 30.19 in 9.0 mi SE 3.5 mph - N/A   Partly Cloudy
7:53 AM 51.1 °F 48.0 °F 89% 30.20 in 10.0 mi Calm Calm - N/A   Overcast
8:53 AM 52.0 °F 48.0 °F 86% 30.23 in 10.0 mi NNW 3.5 mph - N/A   Overcast
9:53 AM 54.0 °F 48.0 °F 80% 30.23 in 10.0 mi Calm Calm - N/A   Overcast
10:53 AM 57.0 °F 46.9 °F 69% 30.23 in 10.0 mi Calm Calm - N/A   Overcast
11:53 AM 57.9 °F 48.0 °F 70% 30.22 in 10.0 mi Calm Calm - 0.00 in Rain Light Rain
12:53 PM 59.0 °F 48.9 °F 69% 30.20 in 10.0 mi Calm Calm - 0.00 in   Overcast
1:53 PM 60.1 °F 48.9 °F 67% 30.17 in 10.0 mi East 3.5 mph - 0.00 in Rain Light Rain
2:53 PM 60.1 °F 46.9 °F 62% 30.15 in 10.0 mi East 6.9 mph - 0.00 in   Overcast
3:53 PM 59.0 °F 48.9 °F 69% 30.15 in 10.0 mi East 3.5 mph - 0.00 in   Overcast
4:53 PM 59.0 °F 48.9 °F 69% 30.14 in 10.0 mi East 5.8 mph - N/A   Overcast
5:53 PM 59.0 °F 48.0 °F 67% 30.13 in 10.0 mi East 3.5 mph - N/A   Overcast
6:53 PM 57.9 °F 46.9 °F 67% 30.13 in 10.0 mi ESE 4.6 mph - N/A   Overcast
7:53 PM 57.0 °F 46.9 °F 69% 30.12 in 10.0 mi ENE 3.5 mph - N/A   Clear
8:53 PM 57.0 °F 48.9 °F 74% 30.12 in 10.0 mi East 3.5 mph - N/A   Overcast
9:53 PM 57.9 °F 48.9 °F 72% 30.11 in 10.0 mi ESE 3.5 mph - N/A   Overcast
10:19 PM 57.0 °F 50.0 °F 77% 30.10 in 10.0 mi ESE 3.5 mph - 0.00 in Rain Light Rain
10:53 PM 57.0 °F 51.1 °F 81% 30.09 in 10.0 mi East 3.5 mph - 0.00 in   Overcast
11:01 PM 57.9 °F 51.1 °F 78% 30.08 in 10.0 mi Variable 3.5 mph - N/A   Overcast
11:53 PM 57.0 °F 52.0 °F 83% 30.06 in 7.0 mi SE 8.1 mph - 0.01 in Rain Light Rain